GFSMA_sfc_30mbdewp_081.txt.gz
Dewpoint
61 62 62 63 63 61 61 60 59 58 58 57 57 56 55 54 54 52 52 55 55 57 56 57 57 56 54 53 53 53 53 53 52 52 52 52 52 51 51 51 50 50 50
62 62 62 62 62 60 60 59 58 57 57 56 56 55 54 54 54 53 53 54 57 58 58 57 56 54 53 53 53 53 53 53 53 52 52 52 51 51 51 50 50 49 49
61 61 61 62 61 59 57 57 57 56 56 55 55 55 54 54 54 54 54 54 55 56 57 57 55 53 53 53 53 53 52 52 52 52 52 52 51 50 51 50 49 48 48
61 62 61 61 61 58 56 55 55 54 55 54 53 54 53 54 54 54 54 54 53 52 55 55 55 54 54 53 53 53 52 52 52 52 51 51 49 49 49 49 48 47 46
60 61 61 61 60 58 55 54 54 54 53 53 53 53 53 53 54 54 54 54 54 53 53 55 54 54 54 54 53 53 52 52 52 51 50 50 49 48 48 47 47 47 46
60 62 61 60 59 58 55 53 53 54 53 53 51 52 53 53 53 54 54 54 54 54 54 54 54 53 55 55 54 53 53 52 51 51 51 50 50 49 48 47 47 47 47
60 60 60 58 58 57 55 53 53 53 53 53 52 52 52 54 54 54 54 54 54 54 54 54 54 53 53 55 55 54 53 53 53 52 51 51 50 50 49 49 48 47 47
60 60 58 58 57 56 55 52 52 52 52 53 51 50 49 51 52 53 53 54 54 54 54 54 54 54 53 53 53 56 55 55 55 55 53 53 53 52 51 50 50 49 49
60 59 57 57 56 55 54 52 52 52 51 53 52 50 49 48 50 51 53 53 53 53 53 54 54 55 55 54 54 55 56 56 57 57 58 56 56 55 54 53 52 52 51
57 57 57 56 54 55 53 52 52 52 52 51 52 50 51 51 48 48 51 52 53 53 53 53 53 53 54 54 54 54 55 55 55 57 58 59 58 57 57 56 56 55 54
57 56 56 53 53 53 53 52 51 51 52 52 51 51 49 51 52 50 48 49 51 52 52 53 53 53 53 54 54 55 54 54 54 55 56 57 58 59 59 58 57 57 57
57 57 56 55 53 53 53 53 52 51 52 53 51 51 49 49 49 49 48 49 49 51 52 53 54 54 54 54 54 54 54 53 53 53 54 55 56 57 58 59 59 59 58
56 56 56 54 54 54 53 54 54 52 52 52 53 52 51 50 50 49 48 46 48 50 50 53 53 54 54 55 55 54 53 52 52 53 53 54 55 56 57 57 58 59 59
57 58 57 56 55 54 54 54 54 53 54 53 53 53 52 51 51 50 48 47 46 47 48 47 50 53 53 54 54 54 54 53 52 52 52 53 53 54 55 55 56 57 58
57 57 57 57 56 54 54 53 54 54 54 53 53 53 52 52 52 52 52 51 48 45 45 47 48 50 51 51 52 53 53 53 52 52 51 51 52 53 53 54 54 55 56
57 57 57 56 56 55 54 52 51 53 54 55 55 54 54 55 54 53 53 53 53 50 47 48 48 49 52 50 50 50 50 50 50 49 49 49 50 51 51 52 52 53 53
56 56 56 57 56 55 55 55 53 54 53 54 56 55 55 56 55 55 54 54 53 52 50 50 49 50 51 51 51 52 51 51 51 49 48 47 47 47 47 48 49 49 50
55 55 55 55 56 56 56 55 54 54 54 53 54 55 54 55 54 54 54 53 53 52 51 50 49 48 51 52 52 52 52 52 51 51 50 49 47 46 46 45 45 46 46
54 54 54 54 54 55 55 56 56 55 55 55 55 54 54 55 54 54 53 52 52 52 51 51 49 49 49 50 50 52 52 53 53 51 50 49 48 47 46 46 46 45 45
53 54 54 54 54 54 54 54 55 55 55 55 55 54 54 54 53 53 53 52 52 52 52 52 51 51 50 50 51 50 51 52 52 52 52 51 51 50 48 48 47 47 46
53 53 53 54 54 54 53 54 54 54 54 54 54 54 54 54 53 53 53 53 52 52 52 51 50 50 50 51 50 50 50 51 51 53 52 53 53 53 53 51 49 48 46
48 54 53 53 53 49 37 40 47 53 53 53 53 53 54 53 52 51 51 51 51 52 51 51 50 50 50 50 50 50 50 49 49 52 51 51 53 52 45 41 41 43 44
40 40 39 42 37 35 34 36 37 45 50 52 52 51 52 51 48 50 51 49 48 47 42 47 49 50 50 44 42 49 50 50 50 43 40 44 36 34 37 37 38 38 37
34 33 34 34 33 32 33 35 37 42 46 37 35 35 35 35 35 36 40 41 33 31 32 32 31 29 29 30 32 36 37 36 35 30 30 34 32 29 30 31 33 34 34
30 30 30 30 30 30 32 34 40 38 33 31 31 31 31 31 32 34 39 35 30 28 31 30 29 28 27 27 27 33 31 34 36 30 26 30 29 28 27 27 29 31 31
28 28 28 28 28 28 30 31 33 32 29 28 27 27 29 29 29 30 32 31 26 25 26 25 24 24 25 25 25 24 26 25 25 24 24 25 27 28 25 27 27 28 29

GFSMA_sfc_30mbdewp_087.txt.gz
Dewpoint
64 62 61 60 60 63 62 61 61 61 61 60 59 58 57 53 50 52 56 58 59 59 57 56 55 54 56 57 55 55 54 54 53 54 54 54 53 53 53 53 53 53 52
62 62 61 60 61 63 62 61 61 61 61 60 58 57 52 51 50 49 54 56 58 58 56 55 56 57 56 56 55 54 53 54 53 54 54 54 53 53 53 53 52 52 52
61 61 60 62 61 62 63 61 61 61 60 58 57 53 51 51 50 49 51 54 56 56 56 58 58 57 55 53 53 54 52 53 53 53 54 53 53 53 53 52 52 51 51
61 60 61 62 63 62 63 61 61 60 58 56 54 53 50 50 49 48 49 52 53 52 57 58 58 57 54 53 54 54 54 54 54 54 54 53 53 53 53 52 52 51 50
62 62 62 63 63 62 62 62 61 60 57 55 54 52 49 47 48 48 49 51 53 54 55 57 57 55 55 54 54 53 54 54 54 53 53 53 53 52 52 52 52 51 50
61 62 61 62 62 62 61 61 60 60 58 54 52 49 49 49 48 48 48 49 50 52 52 55 55 54 55 55 54 53 53 53 53 53 53 53 53 52 51 51 51 51 50
62 62 62 61 62 60 60 60 59 58 57 54 52 52 53 53 52 52 50 47 49 49 51 53 52 50 52 55 55 54 53 53 53 53 53 53 53 53 52 51 50 50 50
62 61 61 61 61 60 60 60 59 57 57 54 51 51 51 52 53 53 53 51 50 48 48 50 50 49 49 52 52 56 54 54 54 54 53 54 54 54 54 52 52 51 51
61 61 61 61 60 60 59 59 59 57 55 53 53 50 49 46 51 53 54 54 54 49 48 48 49 49 49 50 52 54 55 56 56 56 56 55 55 55 55 54 54 53 52
59 60 61 61 60 59 58 59 59 57 55 53 53 51 49 45 48 50 52 53 53 51 51 49 49 49 49 49 50 52 54 54 55 57 58 57 57 56 56 56 56 55 55
59 59 60 60 59 59 58 58 57 58 57 54 53 52 50 48 49 47 47 51 53 51 51 52 49 50 50 50 50 52 51 53 53 54 57 58 59 59 58 57 57 57 57
57 58 58 59 59 58 58 58 57 57 57 54 53 52 50 48 48 46 47 48 50 49 50 51 52 51 51 51 52 51 51 51 52 53 54 56 57 58 59 60 60 59 59
57 56 56 56 58 58 58 58 58 58 58 55 54 53 52 52 50 48 47 47 47 47 48 51 53 53 53 54 54 52 52 52 52 52 53 54 55 55 56 57 57 58 59
57 56 56 56 57 57 58 58 58 58 59 56 55 54 53 52 52 50 48 46 44 43 45 49 52 53 54 54 54 54 54 53 52 52 52 53 53 54 55 55 55 56 56
57 57 56 55 56 57 57 57 56 56 56 56 55 54 53 53 53 52 50 49 45 43 42 44 45 52 54 55 55 55 55 55 52 52 52 52 52 52 53 53 53 54 55
58 57 56 56 55 56 56 56 56 56 55 55 56 55 54 54 53 53 52 53 52 47 43 44 46 49 52 53 54 54 55 54 53 52 51 51 50 51 51 51 52 52 53
56 56 57 56 55 55 55 55 54 54 52 53 55 55 54 54 53 53 54 53 53 53 50 49 48 49 51 52 53 54 52 53 53 53 51 50 50 49 49 49 50 50 51
55 56 56 57 55 55 54 53 53 52 52 52 53 54 53 54 54 55 55 55 54 53 52 49 50 50 51 53 53 53 52 52 52 51 50 50 49 48 48 46 46 47 47
55 56 56 57 56 55 54 53 51 51 51 50 50 51 53 54 54 54 54 53 54 54 54 52 51 52 53 53 53 53 53 53 53 51 49 48 47 47 47 46 46 46 46
55 55 55 56 56 56 55 54 52 50 49 49 49 50 51 51 51 51 52 52 51 51 51 52 52 52 53 54 54 53 52 53 52 52 51 51 50 47 42 42 42 41 42
53 53 55 55 52 43 39 44 52 54 53 52 53 53 53 53 53 52 51 52 52 53 52 52 53 53 52 52 52 53 53 53 53 45 46 46 42 39 36 37 37 38 39
42 42 41 40 39 36 35 37 43 51 51 51 51 50 47 42 42 40 37 39 37 44 48 50 52 52 50 39 38 40 41 42 44 37 39 41 37 34 34 33 35 35 36
36 36 35 35 34 35 37 38 42 42 39 37 37 37 37 36 36 39 35 32 31 31 31 36 37 30 31 30 31 35 38 38 39 32 35 38 35 31 32 32 33 33 33
33 32 32 32 32 33 35 34 34 33 31 31 31 31 32 32 34 37 33 29 28 29 29 29 28 28 29 29 30 32 34 34 34 30 29 33 32 29 30 31 31 31 31
30 30 31 31 30 31 33 33 31 30 29 29 29 30 30 30 33 35 30 27 27 26 29 29 29 28 28 27 28 30 30 31 31 29 28 28 30 30 29 30 31 30 29
29 29 29 29 30 29 31 31 30 29 28 27 28 28 28 29 30 30 28 27 26 26 28 29 30 30 29 28 26 28 28 29 29 30 26 26 29 30 30 31 29 29 30

GFSMA_sfc_30mbdewp_093.txt.gz
Dewpoint
64 65 64 64 63 63 63 63 62 62 61 62 62 62 60 61 61 61 62 62 61 60 59 59 58 58 58 57 57 56 55 54 56 55 55 55 55 54 54 54 54 54 54
64 64 64 63 63 63 63 62 62 61 60 62 60 60 60 60 60 60 61 60 60 60 59 58 58 56 55 54 55 54 53 55 55 55 55 55 55 55 55 54 54 54 53
64 64 63 63 63 63 63 62 62 61 60 60 58 58 60 60 59 59 60 60 60 59 59 59 58 56 55 55 53 54 54 54 53 55 55 55 55 54 54 54 54 53 53
64 63 62 62 64 63 62 61 61 60 59 59 59 60 60 59 58 58 59 59 59 58 58 57 56 56 56 54 54 55 54 53 53 54 55 54 54 54 54 54 53 53 53
63 63 62 62 63 62 61 61 60 59 59 59 60 61 60 57 56 56 57 57 57 56 57 57 56 57 57 57 54 54 53 53 54 54 55 54 54 54 54 54 53 53 52
63 62 62 62 62 62 61 60 59 60 59 60 60 60 59 55 55 56 56 56 55 55 56 57 58 57 56 55 56 54 53 54 54 55 55 54 54 54 54 54 53 53 52
62 61 61 61 62 61 61 60 60 59 59 60 58 57 56 52 53 54 55 54 54 55 56 57 57 56 56 54 54 54 54 54 54 55 55 54 54 55 54 54 54 53 53
62 62 62 62 62 61 61 61 60 58 58 60 56 54 51 50 52 52 53 53 54 55 56 56 56 55 55 54 54 55 54 54 55 55 55 55 56 56 55 54 54 53 53
62 62 62 62 62 61 60 60 60 58 57 59 58 53 49 47 50 53 52 53 54 54 55 55 55 54 54 53 54 55 55 55 56 55 56 56 56 56 56 55 54 53 53
62 62 62 61 61 61 60 60 60 58 56 56 58 57 53 51 47 48 52 53 54 53 52 55 55 54 53 53 53 54 55 54 55 56 57 57 57 57 57 57 56 55 55
61 61 61 61 61 61 60 60 59 58 57 56 56 55 53 50 51 49 48 49 53 53 54 54 54 54 52 53 53 53 53 54 54 55 56 58 59 58 57 57 57 57 57
61 61 61 61 61 60 60 60 60 59 57 57 56 55 52 49 50 49 48 50 48 52 53 52 53 52 52 53 54 53 53 52 53 53 54 55 57 58 59 58 58 58 58
57 57 57 59 60 60 60 60 60 59 58 57 57 55 54 51 50 50 50 51 50 52 52 53 52 53 52 52 52 53 52 51 51 52 53 53 54 56 57 58 59 60 60
56 56 56 56 57 58 59 59 59 59 59 57 57 56 56 54 53 52 51 51 51 51 52 52 53 53 53 53 52 51 51 51 51 51 52 52 53 54 54 55 56 57 58
56 55 55 56 57 58 59 59 59 59 59 57 57 57 56 55 54 52 52 51 50 49 50 51 52 55 54 54 54 53 52 51 50 49 50 50 52 52 53 53 54 54 55
56 56 55 55 56 57 57 58 58 58 58 57 57 57 57 56 54 54 53 53 52 47 46 49 50 54 56 56 56 55 55 55 53 51 50 50 50 51 52 52 52 53 53
56 56 55 55 55 56 57 57 57 57 56 56 57 56 56 56 55 54 54 53 53 52 48 50 50 51 52 53 54 54 54 54 54 53 52 51 50 50 50 51 51 51 51
57 56 56 55 55 56 56 56 55 56 56 56 56 56 56 56 55 54 54 53 53 53 52 49 51 50 50 50 50 50 50 51 52 52 51 49 47 47 47 46 45 45 44
58 57 56 55 54 54 55 55 55 55 54 54 54 54 55 54 54 54 53 52 53 54 54 52 51 52 52 52 52 52 52 52 53 52 44 41 40 40 40 39 40 40 40
56 57 56 55 54 54 54 54 53 53 53 53 54 53 53 53 53 53 53 53 53 53 53 52 52 51 51 50 51 50 51 47 45 46 42 40 39 38 38 38 38 38 38
45 46 45 44 44 44 44 51 53 53 52 53 53 52 46 45 47 48 53 53 53 52 52 51 51 50 50 45 45 42 44 44 38 37 42 39 37 35 35 36 36 36 36
40 40 39 39 39 39 40 45 51 48 47 49 45 42 39 37 35 35 35 34 36 47 50 50 45 43 37 35 36 37 39 41 41 32 35 34 34 32 33 34 34 34 33
36 36 35 35 34 35 36 37 38 37 37 36 37 38 38 35 34 33 32 32 31 31 33 38 34 31 30 30 31 35 35 36 32 28 31 32 32 30 32 32 31 31 30
32 33 33 33 33 33 33 33 33 33 32 32 33 34 36 36 33 31 30 29 29 30 30 29 29 29 29 30 31 33 34 31 29 25 27 30 31 29 30 30 30 29 29
30 30 31 32 31 32 32 31 30 30 29 30 31 32 32 32 32 31 29 28 28 29 30 30 29 27 26 27 28 29 29 32 29 25 20 27 28 27 30 30 30 31 30
28 28 28 29 31 31 32 31 29 28 27 28 29 30 32 31 31 31 30 29 27 28 28 27 26 26 26 25 25 23 25 25 25 22 16 24 26 24 24 31 30 29 27

GFSMA_sfc_30mbdewp_096.txt.gz
Dewpoint
64 64 64 63 63 63 63 63 62 62 62 62 63 62 62 62 63 63 63 64 64 63 63 62 62 62 62 60 60 58 57 56 55 54 54 55 55 54 53 53 55 54 54
64 64 63 63 63 63 63 62 62 61 61 61 61 62 62 62 62 62 62 62 62 62 61 61 61 61 60 60 59 58 57 56 56 54 54 56 56 55 55 55 54 54 54
64 64 63 63 62 63 62 62 62 61 60 62 61 61 62 61 61 61 61 61 61 60 60 61 60 60 59 57 57 56 55 55 56 55 55 56 55 55 55 55 54 54 54
64 64 63 63 63 63 62 62 61 61 60 60 59 60 61 61 60 60 60 60 59 59 59 59 59 59 56 54 54 52 53 55 56 55 54 55 55 55 55 55 54 54 54
63 63 63 62 63 63 62 61 61 60 59 59 59 59 61 61 60 60 59 59 59 58 58 59 58 57 56 56 53 55 55 54 53 55 54 55 55 55 55 55 54 54 53
63 63 62 62 63 61 61 61 60 60 59 59 59 59 60 60 59 59 58 58 58 57 57 57 56 56 56 56 57 56 55 54 54 54 54 54 54 55 55 55 54 54 53
63 62 61 61 62 61 60 60 59 59 59 60 58 59 57 58 58 57 57 57 56 56 56 57 57 57 57 55 55 56 54 54 53 53 54 54 54 55 55 55 54 54 53
62 62 61 61 61 61 60 60 59 58 58 59 56 55 52 53 55 56 56 56 55 55 56 56 57 56 56 56 55 54 53 54 52 53 55 55 54 55 55 55 55 54 54
61 61 61 61 61 61 59 59 59 58 57 59 57 54 51 49 52 54 54 54 54 54 55 55 57 56 55 54 54 55 54 54 55 55 55 55 56 56 56 55 55 55 54
62 61 61 61 61 61 60 59 60 58 57 57 57 56 55 53 50 50 53 53 54 54 55 56 56 56 55 54 54 54 54 53 54 56 56 55 57 57 57 57 56 56 55
62 62 61 61 60 60 60 60 59 59 58 58 56 55 56 53 52 50 50 52 53 54 54 55 55 55 54 54 53 53 53 54 53 54 56 57 58 58 58 58 57 57 57
60 61 60 61 60 60 60 60 60 59 58 57 57 55 54 52 51 50 48 51 51 53 54 53 55 55 54 53 53 53 53 53 53 53 54 56 58 59 59 58 58 58 58
59 59 59 60 60 60 60 60 60 59 58 57 57 56 55 53 52 50 50 48 49 52 52 53 54 54 54 53 53 53 53 52 52 52 53 54 55 57 58 59 59 59 59
58 58 59 59 59 60 60 60 60 60 58 57 57 57 56 54 52 52 50 50 50 50 51 51 53 53 53 53 53 53 53 52 51 51 52 52 53 54 54 56 57 58 59
56 56 56 56 56 56 57 59 59 59 59 58 57 57 56 55 54 53 52 52 50 49 49 51 51 54 53 53 53 52 52 52 51 50 50 51 51 52 53 54 54 55 55
56 55 55 54 55 56 57 58 58 58 58 58 58 57 56 56 56 55 53 52 51 50 49 52 52 54 55 55 55 54 54 54 52 51 51 51 50 51 51 52 53 53 54
56 55 55 54 54 55 56 57 57 57 57 58 57 57 56 56 55 55 54 53 52 50 47 49 50 51 55 55 55 55 56 55 56 54 53 50 49 49 49 49 50 50 51
56 55 55 55 54 55 56 56 56 56 56 56 57 57 56 56 55 55 54 53 53 53 51 48 51 50 49 52 53 52 52 53 54 49 44 43 43 43 42 42 42 43 43
56 56 55 54 54 55 55 55 55 55 56 56 56 56 56 56 55 54 54 54 54 54 53 51 51 52 52 52 52 52 52 53 45 41 40 40 40 39 39 39 40 40 40
57 56 56 55 54 54 55 54 55 54 54 54 55 55 56 55 54 54 54 53 52 52 52 51 52 52 52 52 52 50 51 44 43 42 39 38 38 38 38 38 37 37 37
46 47 47 46 45 45 45 52 53 53 53 53 49 47 46 48 50 51 53 53 53 52 52 52 51 51 50 48 48 43 46 44 35 36 39 37 36 35 36 36 36 36 35
40 40 39 39 39 38 39 45 52 50 51 48 43 40 38 38 37 38 38 37 40 52 52 51 50 49 41 38 37 38 40 42 39 31 36 33 34 33 34 34 34 33 32
36 35 35 35 34 34 35 37 40 40 40 39 40 39 36 35 34 33 32 32 32 32 34 43 40 35 33 32 33 36 36 36 31 27 31 30 32 30 32 32 31 30 29
33 33 32 32 32 32 33 33 34 34 34 33 35 37 34 33 33 32 31 30 29 30 29 29 29 29 30 31 33 34 34 29 27 23 26 29 30 29 30 30 30 29 29
30 30 31 31 31 31 32 31 31 31 31 31 32 33 32 32 32 32 30 28 28 29 29 28 28 28 28 28 30 32 31 31 28 19 16 27 25 25 30 30 30 31 30
28 28 29 30 30 30 31 30 30 29 28 29 30 31 31 31 32 31 29 28 26 26 26 25 23 23 24 23 21 24 25 27 25 12 12 25 17 21 22 31 29 25 23

GFSMA_sfc_30mbdewp_102.txt.gz
Dewpoint
66 65 65 65 64 63 62 62 62 63 63 64 63 63 63 64 63 64 64 64 64 64 66 65 64 64 63 63 62 62 61 60 58 56 55 53 55 55 55 54 54 53 53
65 65 64 64 63 63 62 62 62 62 63 63 63 63 63 63 63 63 63 64 63 63 65 64 64 63 63 62 62 61 60 58 57 55 54 54 54 54 52 55 53 54 53
65 64 64 63 63 63 62 61 61 62 62 63 62 62 62 61 61 61 62 63 63 62 63 65 64 63 63 62 62 61 60 59 57 54 55 53 54 54 54 54 52 53 53
64 64 64 63 62 62 62 61 61 61 61 61 61 61 61 61 60 61 62 62 62 63 63 63 63 63 62 62 62 60 59 58 57 56 56 55 54 53 53 52 54 53 53
64 64 64 63 62 62 62 61 61 61 60 60 59 61 61 61 61 62 62 62 62 61 62 61 62 62 62 62 61 59 58 57 56 57 55 56 54 54 52 53 54 55 55
64 64 63 63 63 62 61 61 61 61 59 59 60 59 60 61 61 61 61 61 61 60 60 60 60 60 60 60 59 58 57 55 55 56 55 55 53 53 55 55 54 55 55
63 63 63 62 62 61 61 61 61 60 59 60 58 58 59 60 60 60 61 61 60 60 59 59 59 58 58 58 57 56 56 53 56 57 55 55 54 53 53 53 55 55 54
63 63 62 62 62 62 61 61 60 59 59 60 57 56 53 55 58 59 60 60 60 59 58 58 58 57 56 56 55 55 56 56 55 55 56 55 54 54 54 53 54 54 54
63 63 62 62 62 62 60 60 60 59 58 59 58 55 51 51 53 56 58 59 59 58 58 57 57 56 56 56 55 55 55 57 57 56 56 56 55 54 54 54 54 53 53
63 63 62 62 62 61 60 60 60 59 58 57 58 56 54 53 51 50 55 56 58 57 57 56 56 56 56 56 55 55 55 56 57 57 55 56 54 55 55 55 55 55 55
63 62 62 61 61 61 60 60 59 59 59 58 57 57 55 53 53 51 50 52 54 56 56 56 56 56 55 55 55 55 54 54 54 54 55 54 55 55 55 56 57 56 57
61 61 61 61 61 61 60 60 60 59 59 58 57 57 55 53 52 51 51 52 52 53 55 55 55 56 56 55 55 54 54 53 53 53 54 55 56 57 57 57 57 57 57
60 60 60 60 60 61 60 60 59 59 58 57 58 57 57 55 53 52 52 52 52 53 54 55 55 55 55 55 55 54 53 53 52 52 52 54 55 57 58 58 58 58 58
60 60 60 60 60 60 60 59 58 58 58 57 57 57 57 56 54 53 52 52 51 52 52 53 55 55 55 55 55 54 54 52 52 51 52 52 53 54 55 57 59 59 59
58 59 59 59 59 59 58 59 58 58 58 57 58 58 58 57 55 53 53 53 51 49 50 53 52 55 55 55 54 54 54 53 51 51 51 51 52 52 53 54 54 55 56
58 58 58 58 58 58 58 58 58 59 58 59 58 58 58 57 56 55 54 54 53 51 49 52 53 54 55 55 55 54 54 53 51 51 50 50 50 51 51 52 52 52 52
57 57 57 57 56 56 56 56 56 55 56 56 57 58 57 57 56 55 54 54 53 52 49 51 53 54 54 54 54 54 53 53 49 49 49 49 49 49 49 48 48 48 48
56 56 55 55 55 54 54 54 54 55 54 55 55 56 56 56 56 55 55 54 54 54 51 49 51 52 53 54 54 55 53 47 44 43 43 43 43 43 43 43 43 42 42
56 55 55 54 54 54 54 54 54 54 55 55 56 56 56 57 56 55 55 54 54 53 52 51 51 52 52 54 53 50 45 42 41 41 40 40 40 40 40 40 40 39 39
55 55 55 55 54 54 54 54 55 55 54 52 51 52 54 56 56 56 54 54 54 53 53 52 51 51 52 53 52 47 44 43 40 39 39 39 39 39 39 38 38 38 37
53 52 50 48 47 46 45 48 52 54 51 46 43 41 39 43 55 55 55 55 54 53 52 52 51 51 51 51 50 49 43 38 36 39 37 37 36 36 37 36 36 35 33
41 41 40 40 39 38 39 45 48 48 45 43 41 39 37 36 36 37 38 37 47 53 52 51 50 50 50 49 47 47 39 38 37 34 34 32 35 33 34 34 33 32 31
35 34 34 34 34 34 36 40 42 39 38 37 36 36 35 35 35 34 34 34 33 34 37 50 50 48 45 41 43 42 41 39 32 29 32 29 32 30 33 33 31 30 29
31 31 31 32 32 33 34 34 35 34 33 33 33 33 33 33 33 33 31 31 30 30 31 32 33 32 33 34 37 37 33 28 27 27 30 27 30 29 31 32 32 31 30
29 29 30 30 30 31 33 33 32 32 31 31 32 32 31 31 32 31 29 26 25 25 29 29 29 29 30 32 33 33 31 30 26 23 24 27 26 28 30 25 28 30 27
28 28 28 29 30 30 32 32 31 30 29 29 30 30 31 30 30 29 26 25 23 23 25 25 24 23 24 25 27 29 32 28 23 23 23 23 23 25 25 21 18 19 18

GFSMA_sfc_30mbdewp_108.txt.gz
Dewpoint
66 64 63 63 64 64 64 64 63 63 63 63 63 64 63 64 64 65 65 64 64 64 64 64 67 66 65 65 65 65 63 62 61 59 59 58 57 57 57 57 57 56 55
67 67 64 65 63 64 64 63 63 63 63 63 63 63 63 64 64 63 63 64 62 63 64 65 66 66 65 64 64 64 63 62 60 59 58 58 57 56 56 57 56 55 54
64 67 67 66 65 63 64 64 64 64 63 63 63 63 63 63 63 63 63 62 61 61 62 63 64 64 65 64 63 63 62 61 60 58 57 57 57 56 56 55 54 53 53
64 66 65 66 66 65 65 64 64 63 63 63 62 62 62 62 63 62 62 62 62 61 62 62 61 63 65 64 63 63 62 61 60 58 57 56 56 56 54 55 52 54 54
63 65 65 65 66 65 65 65 64 64 63 63 61 62 62 62 62 62 61 61 62 62 62 63 61 63 65 64 63 62 62 60 59 58 55 54 56 55 54 54 53 53 52
64 65 65 65 65 65 65 64 64 64 63 62 61 61 61 62 62 61 60 61 61 61 62 62 62 63 63 64 63 62 61 59 58 57 55 55 55 55 54 54 53 53 52
65 65 64 65 65 64 64 64 64 62 63 62 61 60 61 61 61 61 61 60 60 60 61 62 62 62 62 63 62 62 61 59 58 57 56 56 56 56 54 54 54 53 53
64 64 65 65 64 63 63 63 63 61 62 62 59 58 55 58 60 60 61 61 60 59 60 61 62 62 63 61 61 62 61 60 58 57 57 56 57 55 55 53 54 53 55
64 64 64 64 64 63 62 62 62 61 60 61 60 57 53 53 56 59 59 60 60 60 60 60 61 62 62 62 60 61 60 59 59 57 58 57 57 56 55 55 54 53 54
64 64 64 65 64 63 63 62 62 62 61 59 60 59 57 56 53 53 58 59 59 59 60 60 60 61 61 61 59 58 58 58 57 57 57 58 57 56 54 54 53 54 54
63 64 64 64 64 63 63 62 62 62 61 59 59 59 59 56 55 53 51 55 58 59 60 60 60 60 61 60 58 55 55 55 56 57 58 58 56 55 55 55 54 54 55
63 63 63 64 64 63 62 63 63 62 61 60 59 58 58 56 55 54 53 52 54 56 58 60 60 60 60 59 57 55 53 53 54 55 57 58 57 56 55 54 54 54 55
62 62 63 63 62 63 63 63 63 62 61 60 60 59 59 57 56 54 54 53 53 55 56 58 59 59 59 59 59 54 53 52 51 53 56 56 56 57 56 55 55 55 56
61 62 62 62 62 63 63 63 63 62 61 61 60 60 59 59 58 56 54 54 53 54 55 54 58 58 59 59 59 56 55 52 51 52 54 55 55 55 55 55 55 55 56
61 62 63 62 62 63 63 63 62 61 60 61 60 60 59 59 58 57 56 55 54 52 52 54 55 58 59 59 58 56 56 53 51 51 52 52 53 54 54 55 55 56 56
61 61 62 62 62 62 62 61 61 60 60 60 60 59 59 58 58 58 57 57 56 54 52 53 54 56 58 58 58 58 57 54 52 51 51 51 51 52 52 53 53 54 55
61 61 61 61 61 61 61 61 60 60 59 59 59 58 58 58 58 58 58 57 56 56 54 53 55 56 56 57 57 57 58 57 54 51 50 50 50 50 51 51 52 52 53
61 60 61 60 60 60 60 60 59 59 58 58 58 58 57 58 58 58 58 57 56 57 55 53 55 56 56 56 56 56 56 56 54 47 49 49 49 49 49 50 50 50 49
59 60 60 59 59 59 59 59 58 57 57 57 57 56 56 56 56 56 56 57 57 56 56 55 54 55 55 56 56 53 49 46 44 43 43 44 44 45 44 44 44 43 43
58 58 58 58 58 58 58 57 56 56 56 56 55 54 52 50 49 50 53 56 56 55 55 55 54 53 54 55 51 45 43 44 42 42 42 41 41 41 40 40 40 39 39
55 57 57 56 54 54 53 56 55 55 54 51 49 45 43 39 37 38 44 51 56 55 54 54 52 52 52 52 49 47 43 39 39 40 38 39 39 38 38 38 38 37 37
38 40 41 42 41 39 42 48 55 53 49 46 43 42 40 39 37 35 35 34 37 50 53 53 52 51 51 52 50 45 38 36 35 39 35 33 35 34 35 35 35 34 34
33 33 34 34 35 35 38 40 41 41 40 39 39 39 38 37 37 37 34 34 33 33 34 46 52 50 51 52 49 44 42 41 36 35 33 29 32 31 33 34 34 34 33
30 31 31 32 32 33 34 34 34 33 32 32 33 34 34 34 33 33 32 31 29 30 31 32 32 32 33 37 47 45 41 32 32 32 34 28 31 29 31 33 33 32 32
26 26 28 30 31 31 32 32 31 30 29 29 30 31 30 30 30 32 30 29 28 28 29 30 30 30 31 32 36 38 35 34 31 29 29 29 29 26 26 28 32 33 32
26 25 25 26 28 29 31 31 29 28 27 27 28 28 29 29 28 28 28 26 24 24 25 25 25 25 25 26 28 30 36 35 28 27 26 27 26 25 21 24 26 27 28

GFSMA_sfc_30mbdewp_114.txt.gz
Dewpoint
66 66 64 66 67 67 67 66 65 65 65 65 64 63 63 63 63 64 65 64 64 65 66 65 65 65 65 66 65 65 66 65 65 65 64 64 64 63 62 61 59 58 58
65 65 64 65 66 66 66 66 64 62 64 64 63 64 63 64 64 64 65 64 64 64 65 65 64 64 64 65 63 64 64 65 64 64 64 63 63 63 62 60 59 58 56
65 65 65 63 62 66 65 65 64 64 64 64 63 64 64 64 64 64 63 64 63 64 64 63 63 65 62 61 59 62 63 64 63 63 62 61 61 61 61 59 58 56 53
65 67 65 65 65 62 66 66 65 63 63 64 63 64 64 64 63 63 63 63 63 63 62 62 62 63 62 61 61 60 64 62 63 62 61 60 60 60 59 58 56 54 54
66 65 66 65 66 66 64 65 65 63 63 62 63 63 63 63 63 63 63 63 63 62 63 61 60 61 62 62 60 62 63 62 62 62 61 60 59 59 58 57 55 53 53
64 65 65 66 65 65 65 64 63 64 63 63 62 62 62 62 62 63 63 63 62 62 63 63 62 61 61 62 62 64 63 63 62 61 60 60 59 59 58 56 54 54 54
65 64 65 67 66 64 64 64 64 63 63 63 61 61 61 62 62 62 63 62 62 61 62 62 62 61 61 61 62 62 62 64 63 61 60 60 59 58 56 54 53 53 54
64 65 65 65 66 65 63 64 65 64 63 63 61 59 57 59 62 62 62 62 61 61 61 61 62 62 61 61 61 61 61 63 63 62 61 59 58 57 54 53 53 52 52
64 64 65 64 65 64 63 62 64 63 61 62 62 58 55 53 57 60 61 61 61 61 61 61 61 62 62 62 61 61 61 63 63 62 61 59 57 56 54 53 53 52 52
58 64 63 65 65 65 63 62 63 63 61 60 62 60 58 56 54 55 58 60 60 60 61 61 61 61 62 62 62 61 59 61 62 62 61 59 58 56 56 53 54 53 54
56 61 63 65 64 65 64 62 62 63 62 60 60 60 59 58 57 55 55 56 60 60 61 61 62 61 61 61 61 60 60 59 60 61 61 60 58 57 56 53 54 54 54
55 60 62 64 65 64 64 63 63 63 61 61 60 59 59 58 57 55 54 55 56 57 60 61 61 62 62 61 60 60 60 60 59 60 60 60 59 58 56 55 54 53 54
52 56 60 61 63 64 64 64 64 63 62 61 61 60 59 59 58 56 55 54 53 56 58 60 61 61 62 62 61 60 60 59 58 58 59 59 59 58 57 56 55 54 54
50 53 59 60 63 63 63 63 63 63 63 62 61 60 59 59 58 57 56 55 54 54 57 56 58 60 61 61 61 59 59 58 57 57 58 58 58 57 57 56 55 54 54
48 51 55 60 63 63 63 62 63 62 63 62 62 61 60 59 59 58 57 57 55 52 53 56 56 59 59 60 61 59 59 55 56 56 56 56 57 57 56 56 55 55 55
47 50 53 58 62 63 63 63 62 62 62 62 61 59 60 59 59 59 58 57 57 55 52 55 55 58 59 59 59 60 59 56 54 55 54 55 55 56 55 55 54 54 54
48 49 53 57 61 62 63 63 62 61 61 62 62 61 59 55 59 59 58 58 57 57 54 54 55 56 58 58 59 59 59 56 53 52 53 53 53 54 54 54 54 53 53
54 52 55 58 59 61 62 62 61 61 60 60 61 61 60 60 59 59 59 58 58 58 56 54 55 55 56 58 58 58 57 58 57 52 52 52 52 52 53 53 53 53 53
48 56 58 58 59 59 59 62 62 62 62 61 61 60 59 59 59 59 58 58 58 57 57 56 55 56 56 58 58 57 56 51 49 50 51 50 50 50 50 50 51 52 51
40 42 52 56 58 61 61 61 61 61 61 60 60 59 58 58 57 57 56 55 55 56 56 56 56 55 55 57 57 52 48 46 44 43 44 46 47 48 48 49 49 49 50
35 38 38 39 41 45 48 59 61 61 60 56 50 46 42 41 41 43 48 45 46 49 52 53 53 54 55 54 53 51 47 41 39 40 39 40 42 42 42 44 46 46 46
30 32 34 35 35 35 39 51 60 59 53 48 42 39 38 36 35 35 34 33 34 39 43 46 52 52 53 54 53 50 41 39 39 39 34 33 36 35 37 39 40 40 40
29 28 30 32 33 33 34 37 42 44 43 43 41 39 38 38 36 34 32 32 31 31 31 33 39 36 38 42 46 47 44 43 38 35 35 31 32 31 35 36 36 36 36
26 26 27 28 30 32 33 32 33 33 32 32 32 33 33 34 36 34 31 29 28 29 29 29 28 28 30 32 37 45 43 34 34 33 35 29 31 29 31 32 33 33 33
26 26 26 26 26 28 31 32 30 29 28 28 30 31 31 31 34 33 30 28 26 26 28 28 28 28 28 30 34 39 36 36 32 32 32 29 29 26 29 30 31 32 31
28 27 26 27 27 26 28 29 29 28 26 26 27 28 30 30 30 29 27 26 24 24 24 24 24 24 24 25 27 29 36 37 31 31 31 27 26 26 23 26 30 30 30